Baker, OR

2:38 PM PDT on June 24, 2017 (GMT -0700)
Baker City Municipal

Weather History for KBKE - April, 2013

Change the Weather History Date:

Friday, April 26, 2013

  Actual Average Record
Temperature  
Mean Temperature 51 °F 46 °F  
Max Temperature 75 °F 61 °F 81 °F (1987)
Min Temperature 26 °F 31 °F 14 °F (2008)
Degree Days  
Heating Degree Days 14 19  
Month to date heating degree days 609 571  
Since 1 July heating degree days 6830 6939  
Cooling Degree Days 0 0  
Month to date cooling degree days 0 0  
Year to date cooling degree days 0 0  
Growing Degree Days 2 (Base 50)    
Moisture  
Dew Point 32 °F    
Average Humidity 56    
Maximum Humidity 92    
Minimum Humidity 19    
Precipitation  
Precipitation 0.00 in 0.03 in 0.39 in (1981)
Month to date precipitation 0.35 0.71  
Year to date precipitation 1.93 2.91  
Sea Level Pressure  
Sea Level Pressure 30.20 in    
Wind  
Wind Speed 3 mph (NW)    
Max Wind Speed 13 mph    
Max Gust Speed 16 mph    
Visibility 10 miles    
Events      
T = Trace of Precipitation, MM = Missing Value Source: NWS Daily Summary

Daily Weather History Graph

Daily Weather History Graph

Search for Another Location

Airport or City:

Trip Planner

Search our weather history database for the weather conditions in past years. The results will help you decide how hot, cold, wet, or windy it might be!

Date:

Astronomy

Apr. 26, 2013 Rise Set
Actual Time 5:48 AM PDT 7:50 PM PDT
Civil Twilight 5:16 AM PDT 8:22 PM PDT
Nautical Twilight 4:37 AM PDT 9:01 PM PDT
Astronomical Twilight 3:54 AM PDT 9:44 PM PDT
Moon 9:22 PM PDT (4/26) 6:16 AM PDT (4/26)
Length of Visible Light 15h 06m
Length of Day
14h 02m
Full, 99% of the Moon is Illuminated
Apr 26
Full
May 2
Last Quarter
May 9
New
May 17
First Quarter
May 24
Full

Hourly Weather History & Observations

Time (PDT) Temp. Windchill Dew Point Humidity Pressure Visibility Wind Dir Wind Speed Gust Speed Precip Events Conditions
12:53 AM 37.9 °F 34.4 °F 30.0 °F 73% 30.14 in 10.0 mi NNW 4.6 mph - N/A   Clear
1:53 AM 37.0 °F - 30.0 °F 76% 30.14 in 10.0 mi Calm Calm - N/A   Clear
2:53 AM 33.1 °F - 28.0 °F 82% 30.16 in 10.0 mi Calm Calm - N/A   Clear
3:53 AM 32.0 °F - 27.0 °F 82% 30.17 in 10.0 mi Calm Calm - N/A   Clear
4:53 AM 32.0 °F - 27.0 °F 82% 30.20 in 10.0 mi Calm Calm - N/A   Clear
5:53 AM 28.0 °F - 26.1 °F 92% 30.22 in 10.0 mi Calm Calm - N/A   Clear
6:53 AM 34.0 °F - 30.0 °F 85% 30.24 in 10.0 mi Calm Calm - N/A   Clear
7:30 AM 39.2 °F - 32.0 °F 75% 30.24 in 10.0 mi Calm Calm - N/A   Partly Cloudy
7:53 AM 44.1 °F - 35.1 °F 71% 30.25 in 10.0 mi Calm Calm - N/A   Clear
8:53 AM 55.0 °F - 36.0 °F 49% 30.24 in 10.0 mi Calm Calm - N/A   Clear
9:53 AM 61.0 °F - 35.1 °F 38% 30.24 in 10.0 mi NNE 3.5 mph - N/A   Clear
10:53 AM 64.9 °F - 34.0 °F 32% 30.23 in 10.0 mi Calm Calm - N/A   Clear
11:53 AM 66.0 °F - 33.1 °F 29% 30.23 in 10.0 mi Calm Calm - N/A   Clear
12:53 PM 69.1 °F - 33.1 °F 26% 30.21 in 10.0 mi Calm Calm - N/A   Clear
1:53 PM 73.0 °F - 33.1 °F 23% 30.20 in 10.0 mi Variable 3.5 mph - N/A   Clear
2:53 PM 73.0 °F - 28.0 °F 19% 30.19 in 10.0 mi Calm Calm - N/A   Clear
3:53 PM 75.0 °F - 30.9 °F 20% 30.17 in 10.0 mi NNW 8.1 mph - N/A   Clear
4:53 PM 73.9 °F - 32.0 °F 21% 30.17 in 10.0 mi NNW 6.9 mph - N/A   Clear
5:53 PM 72.0 °F - 32.0 °F 23% 30.18 in 10.0 mi NW 5.8 mph - N/A   Clear
6:53 PM 68.0 °F - 35.1 °F 30% 30.19 in 10.0 mi NNW 11.5 mph - N/A   Clear
7:53 PM 61.0 °F - 28.9 °F 30% 30.19 in 10.0 mi NNW 11.5 mph - N/A   Clear
8:53 PM 52.0 °F - 33.1 °F 49% 30.20 in 10.0 mi Variable 3.5 mph - N/A   Clear
9:53 PM 50.0 °F - 36.0 °F 59% 30.21 in 10.0 mi WSW 4.6 mph - N/A   Clear
10:53 PM 48.9 °F - 34.0 °F 56% 30.22 in 10.0 mi South 4.6 mph - N/A   Clear
11:53 PM 52.0 °F - 34.0 °F 50% 30.21 in 10.0 mi WSW 3.5 mph - N/A   Clear